Location: Brede
(50.9167°N, 0.6000°E)
Time: 02:14:28
(UTC+00:00)

Cosmos 1626 - Pass Details

Date: 08 August 2020
Orbit: 491 x 494 km, 82.5° (Epoch: 19 September)

Event Time Altitude Azimuth Distance (km) Brightness Sun altitude
Rises 02:09:27 0° 348° (NNW) 2,594 6.5 -17.6°
Reaches altitude 10° 02:11:34 10° 347° (NNW) 1,706 5.5 -17.4°
Maximum altitude 02:15:18 79° 261° (W) 511 2.0 -17.1°
Enters shadow 02:16:47 34° 180° (S) 826 2.8 -17.0°
